KD0ISH Weather Reports


time (UTC)temp
C
wind
direction
speed
KPH
gust
KPH
rain 1hr
cm
rain 24hr
cm
rain mn
cm
humidity
%
barometer
mb
20260510231257 17 43 3.2 8.0 0.00 0.00 0.00 50 1021.9
20260510230753 17 313 1.6 1.6 0.00 0.00 0.00 50 1022.0
20260510230248 17 76 1.6 1.6 0.00 0.00 0.00 52 1022.1
20260510225746 18 60 1.6 3.2 0.00 0.00 0.00 51 1022.2
20260510225241 18 149 1.6 1.6 0.00 0.00 0.00 51 1022.0
20260510224737 18 41 8.0 9.7 0.00 0.00 0.00 49 1021.6
20260510224233 18 61 8.0 11.3 0.00 0.00 0.00 48 1022.0
20260510223731 18 89 4.8 4.8 0.00 0.00 0.00 48 1022.0
20260510223228 18 38 3.2 4.8 0.00 0.00 0.00 47 1021.8
20260510222726 18 27 8.0 9.7 0.00 0.00 0.00 47 1021.8
20260510222222 18 85 3.2 8.0 0.00 0.00 0.00 47 1021.8
20260510221718 18 42 6.4 8.0 0.00 0.00 0.00 45 1022.0
20260510221215 19 3 1.6 1.6 0.00 0.00 0.00 46 1021.9
20260510220711 19 329 3.2 4.8 0.00 0.00 0.00 45 1021.8
20260510220206 18 318 4.8 8.0 0.00 0.00 0.00 46 1021.8
20260510215703 19 53 8.0 11.3 0.00 0.00 0.00 44 1021.9
20260510215202 19 61 4.8 4.8 0.00 0.00 0.00 47 1021.8
20260510214658 19 145 1.6 1.6 0.00 0.00 0.00 46 1021.8
20260510214155 19 73 3.2 3.2 0.00 0.00 0.00 47 1021.6
20260510213652 19 57 4.8 4.8 0.00 0.00 0.00 44 1021.6
20260510213148 20 42 3.2 4.8 0.00 0.00 0.00 44 1021.5
20260510212644 20 59 4.8 8.0 0.00 0.00 0.00 46 1021.6
20260510212143 19 77 4.8 4.8 0.00 0.00 0.00 45 1021.4
20260510211639 19 43 6.4 9.7 0.00 0.00 0.00 45 1021.4
20260510211139 19 60 3.2 3.2 0.00 0.00 0.00 45 1021.4
20260510210636 19 75 1.6 3.2 0.00 0.00 0.00 46 1021.4
20260510210131 19 93 9.7 14.5 0.00 0.00 0.00 44 1021.4
20260510205630 19 74 8.0 11.3 0.00 0.00 0.00 44 1021.2
20260510205126 20 89 9.7 11.3 0.00 0.00 0.00 42 1021.5
20260510204622 20 45 4.8 9.7 0.00 0.00 0.00 41 1021.4
20260510204119 20 63 9.7 14.5 0.00 0.00 0.00 44 1021.8
20260510203616 20 71 8.0 12.9 0.00 0.00 0.00 42 1021.8
20260510203113 20 252 3.2 3.2 0.00 0.00 0.00 44 1021.6
20260510202612 20 292 3.2 3.2 0.00 0.00 0.00 45 1021.9
20260510202108 20 345 4.8 8.0 0.00 0.00 0.00 41 1021.8
20260510201606 20 42 4.8 9.7 0.00 0.00 0.00 42 1021.6
20260510201103 20 59 1.6 1.6 0.00 0.00 0.00 44 1021.6
20260510200558 20 52 4.8 9.7 0.00 0.00 0.00 43 1021.6
20260510200057 20 55 4.8 11.3 0.00 0.00 0.00 43 1021.6
20260510195554 20 62 6.4 12.9 0.00 0.00 0.00 42 1021.9
20260510195050 20 73 4.8 8.0 0.00 0.00 0.00 44 1021.6
20260510194545 20 59 8.0 9.7 0.00 0.00 0.00 42 1021.9
20260510194041 20 9 6.4 8.0 0.00 0.00 0.00 41 1022.1
20260510193536 20 91 4.8 8.0 0.00 0.00 0.00 41 1022.2
20260510193032 20 322 3.2 3.2 0.00 0.00 0.00 41 1022.1
20260510192531 20 227 1.6 1.6 0.00 0.00 0.00 42 1022.0
20260510192028 20 38 8.0 11.3 0.00 0.00 0.00 39 1022.0
20260510191525 20 87 3.2 9.7 0.00 0.00 0.00 40 1022.0
20260510191021 20 56 3.2 4.8 0.00 0.00 0.00 41 1022.1
20260510190519 20 34 4.8 8.0 0.00 0.00 0.00 40 1022.2
20260510190016 20 61 8.0 9.7 0.00 0.00 0.00 38 1022.1
20260510185513 20 301 1.6 1.6 0.00 0.00 0.00 43 1022.0
20260510185010 20 45 3.2 3.2 0.00 0.00 0.00 46 1022.1
20260510184507 20 71 8.0 11.3 0.00 0.00 0.00 43 1022.0
20260510184002 20 72 4.8 8.0 0.00 0.00 0.00 43 1022.0
20260510183458 20 58 4.8 4.8 0.00 0.00 0.00 43 1022.1
20260510182953 21 45 4.8 9.7 0.00 0.00 0.00 42 1021.9
20260510182450 20 78 3.2 8.0 0.00 0.00 0.00 43 1022.1
20260510181945 21 63 8.0 12.9 0.00 0.00 0.00 42 1021.9
20260510181444 21 28 4.8 8.0 0.00 0.00 0.00 44 1021.9
20260510180939 21 74 3.2 4.8 0.00 0.00 0.00 42 1021.9
20260510180437 20 117 6.4 8.0 0.00 0.00 0.00 43 1021.9
20260510175933 20 51 6.4 9.7 0.00 0.00 0.00 41 1022.1
20260510175430 21 25 9.7 12.9 0.00 0.00 0.00 41 1022.1
20260510174925 20 179 1.6 3.2 0.00 0.00 0.00 45 1021.6
20260510174424 20 67 6.4 9.7 0.00 0.00 0.00 42 1021.9
20260510173920 20 93 8.0 12.9 0.00 0.00 0.00 42 1021.6
20260510173415 20 79 6.4 11.3 0.00 0.00 0.00 44 1021.5
20260510172912 21 32 4.8 8.0 0.00 0.00 0.00 44 1021.3
20260510172408 20 62 1.6 1.6 0.00 0.00 0.00 43 1021.3
20260510171904 20 102 6.4 11.3 0.00 0.00 0.00 45 1021.1
20260510171402 20 85 9.7 12.9 0.00 0.00 0.00 43 1021.2
20260510170858 20 71 6.4 9.7 0.00 0.00 0.00 44 1021.1
20260510170355 20 76 6.4 11.3 0.00 0.00 0.00 44 1021.1
20260510165850 20 31 8.0 9.7 0.00 0.00 0.00 46 1021.2
20260510165347 20 49 6.4 11.3 0.00 0.00 0.00 44 1020.9
20260510164844 19 82 3.2 4.8 0.00 0.00 0.00 45 1021.0
20260510164341 19 88 11.3 16.1 0.00 0.00 0.00 45 1021.0
20260510163841 19 33 3.2 3.2 0.00 0.00 0.00 45 1021.0
20260510163338 18 82 8.0 14.5 0.00 0.00 0.00 45 1021.0
20260510162832 18 53 8.0 12.9 0.00 0.00 0.00 43 1020.9
20260510162330 19 53 6.4 9.7 0.00 0.00 0.00 45 1020.8
20260510161825 19 60 3.2 4.8 0.00 0.00 0.00 46 1020.8
20260510161321 18 80 6.4 11.3 0.00 0.00 0.00 45 1020.9
20260510160818 18 73 11.3 14.5 0.00 0.00 0.00 44 1021.1
20260510160314 18 41 6.4 8.0 0.00 0.00 0.00 45 1020.8
20260510155808 18 98 11.3 16.1 0.00 0.00 0.00 45 1020.9
20260510155306 18 69 6.4 9.7 0.00 0.00 0.00 46 1020.8
20260510154801 18 90 11.3 17.7 0.00 0.00 0.00 45 1020.9
20260510154257 18 112 11.3 16.1 0.00 0.00 0.00 45 1020.8
20260510153752 18 61 11.3 12.9 0.00 0.00 0.00 47 1020.7
20260510153248 17 84 1.6 3.2 0.00 0.00 0.00 54 1020.7
20260510152745 17 49 8.0 12.9 0.00 0.00 0.00 53 1020.5
20260510152242 17 95 8.0 9.7 0.00 0.00 0.00 52 1020.8
20260510151738 17 104 3.2 8.0 0.00 0.00 0.00 53 1020.7
20260510151237 16 60 11.3 12.9 0.00 0.00 0.00 52 1020.8
20260510150732 16 59 9.7 12.9 0.00 0.00 0.00 50 1020.9
20260510150228 16 4 8.0 9.7 0.00 0.00 0.00 53 1020.7
20260510145724 16 52 9.7 12.9 0.00 0.00 0.00 54 1021.0
20260510145221 16 45 8.0 11.3 0.00 0.00 0.00 55 1020.8
20260510144717 16 73 4.8 9.7 0.00 0.00 0.00 55 1020.9
20260510144214 16 85 6.4 8.0 0.00 0.00 0.00 54 1020.9
20260510143709 16 40 14.5 17.7 0.00 0.00 0.00 54 1020.9
20260510143205 16 27 9.7 12.9 0.00 0.00 0.00 55 1020.7
20260510142702 16 87 4.8 4.8 0.00 0.00 0.00 56 1021.2
20260510142158 16 64 8.0 12.9 0.00 0.00 0.00 55 1020.9
20260510141655 16 68 9.7 11.3 0.00 0.00 0.00 56 1020.8
20260510141154 16 58 6.4 9.7 0.00 0.00 0.00 58 1020.9
20260510140650 16 73 4.8 4.8 0.00 0.00 0.00 56 1021.0
20260510140149 16 48 3.2 4.8 0.00 0.00 0.00 59 1020.8
20260510135644 16 25 9.7 12.9 0.00 0.00 0.00 57 1020.7
20260510135141 16 69 6.4 11.3 0.00 0.00 0.00 59 1020.8
20260510134638 16 15 4.8 4.8 0.00 0.00 0.00 60 1020.7
20260510134135 16 61 4.8 9.7 0.00 0.00 0.00 60 1020.5
20260510133631 16 81 8.0 12.9 0.00 0.00 0.00 61 1020.4
20260510133126 16 30 4.8 11.3 0.00 0.00 0.00 61 1020.2
20260510132624 15 49 4.8 4.8 0.00 0.00 0.00 62 1019.9
20260510132121 15 80 4.8 9.7 0.00 0.00 0.00 62 1019.5
20260510131618 15 59 6.4 8.0 0.00 0.00 0.00 63 1019.5
20260510131115 15 69 3.2 8.0 0.00 0.00 0.00 64 1019.5
20260510130612 15 34 8.0 12.9 0.00 0.00 0.00 64 1019.6
20260510130110 15 86 8.0 11.3 0.00 0.00 0.00 65 1019.5
20260510125606 15 65 8.0 9.7 0.00 0.00 0.00 66 1019.2
20260510125102 15 47 6.4 12.9 0.00 0.00 0.00 66 1019.1
20260510124558 15 3 6.4 8.0 0.00 0.00 0.00 69 1018.9
20260510124056 15 88 3.2 8.0 0.00 0.00 0.00 71 1018.8
20260510123551 15 81 8.0 11.3 0.00 0.00 0.00 72 1018.8
20260510123047 15 79 6.4 11.3 0.00 0.00 0.00 74 1018.4
20260510122543 15 85 6.4 9.7 0.00 0.00 0.00 74 1018.6
20260510122039 15 59 3.2 8.0 0.00 0.00 0.00 74 1018.5
20260510121537 15 56 8.0 12.9 0.00 0.00 0.00 75 1018.5
20260510121034 15 60 4.8 4.8 0.00 0.00 0.00 76 1018.5
20260510120531 15 49 4.8 4.8 0.00 0.00 0.00 78 1018.5
20260510120027 15 82 6.4 8.0 0.00 0.00 0.00 79 1018.2
20260510115524 14 18 6.4 9.7 0.00 0.00 0.00 80 1017.9
20260510115020 14 76 3.2 4.8 0.00 0.00 0.00 81 1018.1
20260510114516 14 67 6.4 9.7 0.00 0.00 0.00 82 1017.8
20260510114013 14 38 4.8 4.8 0.00 0.00 0.00 82 1017.8
20260510113508 14 70 3.2 3.2 0.00 0.00 0.00 82 1018.2
20260510113006 14 84 1.6 1.6 0.00 0.00 0.00 82 1017.7
20260510112502 14 172 1.6 1.6 0.00 0.00 0.00 82 1017.6
20260510111959 14 342 1.6 3.2 0.00 0.00 0.00 82 1017.5
20260510111455 14 104 0.0 0.0 0.00 0.00 0.00 81 1017.7
20260510110951 14 45 3.2 3.2 0.00 0.00 0.00 81 1017.7
20260510110448 15 82 1.6 1.6 0.00 0.00 0.00 81 1017.6
20260510105944 15 47 1.6 1.6 0.00 0.00 0.00 81 1017.7
20260510105439 15 41 1.6 1.6 0.00 0.00 0.00 81 1017.5
20260510104934 15 61 4.8 4.8 0.00 0.00 0.00 81 1017.4
20260510104431 15 79 4.8 8.0 0.00 0.00 0.00 80 1017.2
20260510103928 15 85 1.6 3.2 0.00 0.00 0.00 80 1017.2
20260510103426 15 81 3.2 4.8 0.00 0.00 0.00 80 1017.1
20260510102920 15 68 0.0 1.6 0.00 0.00 0.00 80 1017.0
20260510102416 15 62 1.6 3.2 0.00 0.00 0.00 79 1017.2
20260510101914 15 53 6.4 9.7 0.00 0.00 0.00 80 1016.9
20260510101411 15 98 0.0 1.6 0.00 0.00 0.00 80 1016.7
20260510100909 15 38 4.8 4.8 0.00 0.00 0.00 79 1016.7
20260510100406 15 88 3.2 3.2 0.00 0.00 0.00 79 1016.6
20260510095902 15 69 3.2 3.2 0.00 0.00 0.00 80 1016.4
20260510095357 15 92 0.0 1.6 0.00 0.00 0.00 80 1016.6
20260510094856 15 37 3.2 3.2 0.00 0.00 0.00 80 1016.4
20260510094351 15 78 1.6 1.6 0.00 0.00 0.00 80 1016.5
20260510093848 16 98 1.6 1.6 0.00 0.00 0.00 80 1016.4
20260510093344 16 68 1.6 3.2 0.00 0.00 0.00 79 1016.4
20260510092840 16 46 8.0 11.3 0.00 0.00 0.00 80 1016.6
20260510092337 16 22 3.2 3.2 0.00 0.00 0.00 79 1016.3
20260510091832 16 81 3.2 3.2 0.00 0.00 0.00 79 1016.1
20260510091330 16 92 4.8 8.0 0.00 0.00 0.00 80 1016.1
20260510090826 16 73 3.2 3.2 0.00 0.00 0.00 80 1015.9
20260510090323 16 46 3.2 3.2 0.00 0.00 0.00 80 1016.0
20260510085819 16 7 1.6 3.2 0.00 0.00 0.00 79 1015.8
20260510085318 16 39 3.2 3.2 0.00 0.00 0.00 78 1015.7
20260510084814 16 33 3.2 3.2 0.00 0.00 0.00 77 1015.5
20260510084312 16 89 1.6 3.2 0.00 0.00 0.00 77 1015.6
20260510083808 16 207 1.6 1.6 0.00 0.00 0.00 77 1015.5
20260510083305 16 56 1.6 1.6 0.00 0.00 0.00 77 1015.3
20260510082801 17 207 1.6 1.6 0.00 0.00 0.00 77 1015.1
20260510082258 17 77 1.6 3.2 0.00 0.00 0.00 76 1015.2
20260510081756 17 64 3.2 4.8 0.00 0.00 0.00 75 1015.3
20260510081253 17 58 1.6 3.2 0.00 0.00 0.00 74 1015.4
20260510080748 17 52 3.2 3.2 0.00 0.00 0.00 74 1015.2
20260510080244 17 66 1.6 3.2 0.00 0.00 0.00 74 1015.1
20260510075741 17 40 1.6 3.2 0.00 0.00 0.00 74 1015.1
20260510075239 17 55 3.2 3.2 0.00 0.00 0.00 74 1015.3
20260510074735 17 76 3.2 8.0 0.00 0.00 0.00 73 1014.9
20260510074232 17 55 3.2 3.2 0.00 0.00 0.00 72 1015.0
20260510073728 17 64 3.2 3.2 0.00 0.00 0.00 72 1014.9
20260510073224 17 68 3.2 4.8 0.00 0.00 0.00 73 1014.9
20260510072720 18 123 1.6 1.6 0.00 0.00 0.00 73 1014.8
20260510072217 17 352 1.6 3.2 0.00 0.00 0.00 73 1014.7
20260510071714 17 119 3.2 3.2 0.00 0.00 0.00 77 1014.7
20260510071210 16 212 1.6 1.6 0.00 0.00 0.00 80 1014.6
20260510070708 16 223 0.0 0.0 0.00 0.00 0.00 82 1014.7
20260510070205 17 223 0.0 0.0 0.00 0.00 0.00 81 1015.0
20260510065700 16 326 1.6 1.6 0.00 0.00 0.00 82 1014.7
20260510065157 16 207 1.6 1.6 0.00 0.00 0.00 83 1014.8
20260510064653 16 187 0.0 0.0 0.00 0.00 0.00 83 1014.8
20260510064150 16 235 0.0 0.0 0.00 0.00 0.00 82 1014.8
20260510063648 16 235 0.0 0.0 0.00 0.00 0.00 82 1014.4
20260510063144 16 235 0.0 0.0 0.00 0.00 0.00 82 1014.7
20260510062640 16 235 0.0 0.0 0.00 0.00 0.00 81 1014.4
20260510062136 16 235 0.0 0.0 0.00 0.00 0.00 81 1014.3
20260510061631 16 235 0.0 0.0 0.00 0.00 0.00 81 1014.3
20260510061129 16 235 0.0 0.0 0.00 0.00 0.00 81 1014.6
20260510060625 16 235 0.0 0.0 0.00 0.00 0.00 81 1014.4
20260510060122 16 233 0.0 0.0 0.00 0.00 0.00 80 1014.5
20260510055618 16 233 0.0 0.0 0.00 0.00 0.00 79 1014.4
20260510055116 16 233 0.0 0.0 0.00 0.00 0.00 79 1014.6
20260510054612 16 233 0.0 0.0 0.00 0.00 0.00 79 1014.4
20260510054107 17 232 0.0 0.0 0.00 0.00 0.00 79 1014.5
20260510053606 17 233 0.0 0.0 0.00 0.00 0.00 77 1014.5
20260510053104 17 234 0.0 0.0 0.00 0.00 0.00 75 1014.1
20260510052559 17 234 0.0 0.0 0.00 0.00 0.00 73 1014.3
20260510052056 18 234 0.0 0.0 0.00 0.00 0.00 72 1014.5
20260510051552 18 234 0.0 0.0 0.00 0.00 0.00 71 1014.4
20260510051049 18 234 0.0 0.0 0.00 0.00 0.00 69 1014.4
20260510050546 18 234 0.0 0.0 0.00 0.00 0.00 68 1014.6
20260510050043 19 234 0.0 0.0 0.00 0.03 0.03 67 1014.8
20260510045540 19 234 0.0 0.0 0.00 0.03 0.03 67 1014.6
20260510045036 19 234 0.0 0.0 0.00 0.03 0.03 67 1014.6
20260510044533 20 233 0.0 0.0 0.00 0.03 0.03 66 1014.4
20260510044030 20 233 0.0 0.0 0.00 0.03 0.03 68 1014.4
20260510043526 20 232 0.0 0.0 0.00 0.03 0.03 66 1014.6
20260510043021 20 224 1.6 1.6 0.00 0.03 0.03 66 1014.4
20260510042515 20 237 0.0 0.0 0.00 0.03 0.03 65 1014.1
20260510042010 20 232 0.0 0.0 0.00 0.03 0.03 66 1014.1
20260510041508 20 236 0.0 0.0 0.00 0.03 0.03 66 1014.3
20260510041006 20 235 0.0 0.0 0.00 0.03 0.03 67 1014.0
20260510040502 20 241 0.0 0.0 0.00 0.03 0.03 66 1014.1
20260510035957 20 240 0.0 0.0 0.00 0.03 0.03 67 1014.0
20260510035455 20 240 0.0 0.0 0.00 0.03 0.03 68 1013.9
20260510034954 20 241 0.0 1.6 0.00 0.03 0.03 70 1013.9
20260510034453 19 42 3.2 3.2 0.00 0.03 0.03 70 1013.7
20260510033948 19 284 4.8 4.8 0.00 0.03 0.03 70 1013.6
20260510033445 19 251 0.0 1.6 0.00 0.03 0.03 68 1013.1
20260510032942 19 236 1.6 1.6 0.00 0.03 0.03 69 1013.0
20260510032439 19 235 1.6 1.6 0.00 0.03 0.03 69 1013.1
20260510031939 19 234 1.6 1.6 0.00 0.03 0.03 69 1013.1
20260510031435 20 239 1.6 1.6 0.00 0.03 0.03 68 1012.8
20260510030931 19 238 1.6 1.6 0.00 0.03 0.03 68 1012.7
20260510030426 19 241 1.6 3.2 0.00 0.03 0.03 69 1013.0
20260510025924 19 241 1.6 1.6 0.00 0.03 0.03 70 1012.8
20260510025421 19 237 1.6 1.6 0.00 0.03 0.03 70 1012.7
20260510024919 20 230 1.6 1.6 0.00 0.03 0.03 72 1012.5
20260510024415 20 242 1.6 1.6 0.00 0.03 0.03 67 1012.6
20260510023911 20 247 1.6 1.6 0.00 0.03 0.03 66 1012.4
20260510023407 20 245 1.6 3.2 0.00 0.03 0.03 67 1012.4
20260510022905 20 243 1.6 1.6 0.00 0.03 0.03 66 1012.3
20260510022404 20 240 1.6 1.6 0.00 0.03 0.03 68 1012.0
20260510021903 20 240 0.0 1.6 0.00 0.03 0.03 66 1012.0
20260510021401 20 241 1.6 1.6 0.00 0.03 0.03 67 1011.9
20260510020857 20 241 0.0 0.0 0.00 0.03 0.03 68 1011.7
20260510020352 21 241 0.0 1.6 0.00 0.03 0.03 66 1011.4
20260510015848 20 241 0.0 1.6 0.00 0.03 0.03 66 1011.6
20260510015344 20 239 1.6 1.6 0.00 0.03 0.03 67 1011.5
20260510014839 21 239 0.0 1.6 0.00 0.03 0.03 67 1011.4
20260510014337 21 240 0.0 1.6 0.00 0.03 0.03 66 1011.2
20260510013833 21 240 1.6 1.6 0.00 0.03 0.03 64 1011.1
20260510013329 21 235 0.0 0.0 0.00 0.03 0.03 63 1011.0
20260510012824 22 232 1.6 1.6 0.00 0.03 0.03 61 1010.8
20260510012323 22 234 1.6 1.6 0.00 0.03 0.03 62 1010.7
20260510011819 22 234 1.6 1.6 0.00 0.03 0.03 61 1010.8
20260510011314 22 234 0.0 1.6 0.00 0.03 0.03 59 1010.8
20260510010811 22 234 1.6 1.6 0.00 0.03 0.03 60 1010.7
20260510010308 23 229 1.6 1.6 0.00 0.03 0.03 57 1010.7
20260510005805 23 228 0.0 1.6 0.00 0.03 0.03 58 1010.3
20260510005301 24 222 1.6 1.6 0.00 0.03 0.03 57 1010.3
20260510004759 24 224 1.6 1.6 0.00 0.03 0.03 55 1010.4
20260510004256 25 233 1.6 1.6 0.00 0.03 0.03 53 1010.4
20260510003754 25 220 1.6 1.6 0.00 0.03 0.03 51 1010.6
20260510003250 25 215 1.6 1.6 0.00 0.03 0.03 50 1010.3
20260510002749 26 207 1.6 3.2 0.00 0.03 0.03 47 1010.3
20260510002247 26 230 1.6 3.2 0.00 0.03 0.03 48 1010.4
20260510001743 25 215 1.6 1.6 0.00 0.03 0.03 50 1010.4
20260510001242 25 237 4.8 4.8 0.00 0.03 0.03 48 1010.4
20260510000737 25 220 1.6 1.6 0.00 0.03 0.03 49 1010.1
20260510000235 26 220 4.8 4.8 0.00 0.03 0.03 48 1010.3
20260509235731 26 212 3.2 3.2 0.00 0.03 0.03 48 1010.3
20260509235228 26 225 4.8 4.8 0.00 0.03 0.03 46 1010.1
20260509234724 26 211 3.2 3.2 0.00 0.03 0.03 46 1010.2
20260509234221 26 230 1.6 3.2 0.00 0.03 0.03 47 1010.3
20260509233719 26 208 3.2 3.2 0.00 0.03 0.03 45 1010.3
20260509233217 26 220 1.6 3.2 0.00 0.03 0.03 48 1010.3
20260509232712 26 245 1.6 1.6 0.00 0.03 0.03 52 1010.3
20260509232210 26 230 1.6 1.6 0.00 0.03 0.03 52 1010.2
20260509231706 26 230 0.0 0.0 0.00 0.03 0.03 49 1010.7